Tracking 30970 objects as of 3-Jul-2025
HD Live streaming from Space Station
objects crossing your sky now

STARLINK-1225

Track STARLINK-1225 now!
10-day predictions
STARLINK-1225 is classified as:


NORAD ID: 45187
Int'l Code: 2020-012K
Perigee: 553.3 km
Apogee: 555.4 km
Inclination: 53.1 °
Period: 95.6 minutes
Semi major axis: 6925 km
RCS: Unknown
Launch date: February 17, 2020
Source: United States (US)
Launch site: AIR FORCE EASTERN TEST RANGE (AFETR)
Your satellite tracking list
Your tracking list is empty




NASA's NSSDC Master Catalog

Two Line Element Set (TLE):
1 45187U 20012K   25183.92174877  .00000107  00000-0  26089-4 0  9991
2 45187  53.0557  87.8717 0001510  88.5978 271.5183 15.06411446297188
Source of the keplerian elements: AFSPC